AKDT,Max TemperatureF,Mean TemperatureF,Min TemperatureF,Max Dew PointF,MeanDew PointF,Min DewpointF,Max Humidity, Mean Humidity, Min Humidity, Max Sea Level PressureIn, Mean Sea Level PressureIn, Min Sea Level PressureIn, Max VisibilityMiles, Mean VisibilityMiles, Min VisibilityMiles, Max Wind SpeedMPH, Mean Wind SpeedMPH, Max Gust SpeedMPH,PrecipitationIn, CloudCover, Events, WindDirDegrees
2013-5-1,39,29,19,22,17,14,82,58,26,29.88,29.74,29.65,10,10,10,12,4,,0.00,4,,286
2013-5-2,36,28,19,28,18,14,92,67,39,29.96,29.88,29.73,10,10,9,10,6,,0.01,7,,281
2013-5-3,48,36,23,31,27,21,100,83,46,29.98,29.87,29.81,10,7,0,20,4,26,0.00,7,Fog-Snow,323
2013-5-4,30,27,24,23,21,19,88,82,74,30.06,29.93,29.85,10,4,1,14,9,,0.03,8,Snow,288
2013-5-5,39,31,23,22,17,12,86,55,25,30.20,30.15,30.08,10,10,2,10,6,,0.01,5,Snow,247
2013-5-6,42,32,21,16,13,9,65,42,16,30.25,30.21,30.19,10,10,10,12,7,,0.00,4,,254
2013-5-7,44,36,27,18,15,11,66,42,21,30.32,30.29,30.26,10,10,10,13,6,18,0.00,4,,239
2013-5-8,46,37,28,16,13,6,58,36,9,30.39,30.34,30.30,10,10,10,12,7,,0.00,1,,229
2013-5-9,55,40,26,25,18,14,66,37,13,30.43,30.33,30.24,10,10,10,17,7,22,0.00,2,,128
2013-5-10,57,46,34,27,24,21,67,39,16,30.25,30.13,29.96,10,10,10,12,5,,0.00,5,,253
2013-5-11,54,46,39,30,25,20,65,43,17,29.96,29.80,29.65,10,10,10,12,7,,0.00,8,,247
2013-5-12,46,42,37,34,31,28,79,62,46,29.69,29.60,29.52,10,10,10,10,7,,0.00,8,Rain,261
2013-5-13,44,32,19,27,16,9,86,63,29,29.71,29.63,29.52,10,7,1,20,11,26,0.00,7,Snow,299
2013-5-14,39,29,19,15,11,7,58,41,19,29.72,29.69,29.66,10,10,10,8,4,,0.00,6,,264
2013-5-15,48,38,28,22,17,15,64,43,17,29.74,29.71,29.69,10,10,10,22,8,28,0.00,4,,214
2013-5-16,48,39,30,27,22,18,61,43,25,29.72,29.61,29.45,10,10,10,28,14,40,0.00,4,,166
2013-5-17,45,36,26,32,28,21,93,80,36,29.69,29.50,29.40,10,5,1,25,14,34,0.01,8,Rain-Snow,294
2013-5-18,28,24,19,20,13,7,86,67,28,30.27,29.91,29.62,10,7,0,18,14,26,0.00,8,Snow,304
2013-5-19,39,29,19,14,9,7,56,39,17,30.66,30.51,30.30,10,10,10,12,8,18,0.00,6,,255
2013-5-20,50,36,23,13,11,7,63,35,11,30.72,30.61,30.49,10,10,10,12,8,,0.00,1,,219
2013-5-21,57,42,27,16,11,6,61,28,9,30.51,30.37,30.19,10,10,10,15,6,17,0.00,2,,212
2013-5-22,62,46,30,20,16,10,61,29,7,30.19,30.08,29.99,10,10,10,20,8,20,0.00,1,,204
2013-5-23,61,50,39,36,28,21,59,38,21,30.14,30.10,30.06,10,10,10,16,11,20,0.00,4,,277
2013-5-24,66,54,42,37,32,26,73,43,14,30.17,30.09,30.00,10,10,10,14,7,,0.00,4,,235
2013-5-25,71,54,39,31,27,19,62,32,7,30.02,29.94,29.86,10,10,10,25,8,36,0.00,2,,177
2013-5-26,73,58,42,33,30,28,54,33,12,29.90,29.86,29.81,10,10,10,17,6,18,0.00,2,,223
2013-5-27,75,60,45,36,31,22,63,31,7,29.90,29.84,29.78,10,10,10,16,5,21,0.00,3,,176
2013-5-28,79,64,48,34,30,27,44,27,7,29.82,29.75,29.68,10,10,10,16,7,,0.00,4,,195
2013-5-29,77,66,55,40,36,29,55,33,17,29.74,29.71,29.67,10,10,10,12,5,21,0.00,4,,234
2013-5-30,79,64,48,39,34,29,59,32,9,29.90,29.83,29.75,10,10,10,16,6,21,0.00,2,Rain,220
2013-5-31,78,66,54,40,36,32,46,33,15,30.00,29.97,29.91,10,10,10,16,9,24,0.00,4,,249